Weather History for Montrose, CO

Change the Weather History Date:

Monday, February 24, 2014

  Actual Average Record
Temperature  
Mean Temperature 43 °F 35 °F  
Max Temperature 61 °F 47 °F 61 °F (2009)
Min Temperature 24 °F 23 °F 9 °F (2013)
Degree Days  
Heating Degree Days 22 30  
Month to date heating degree days 728 794  
Since 1 July heating degree days 4644 4599  
Cooling Degree Days 0 0  
Month to date cooling degree days 0 0  
Year to date cooling degree days 0 0  
Moisture  
Dew Point 17 °F    
Average Humidity 45    
Maximum Humidity 74    
Minimum Humidity 15    
Precipitation  
Precipitation 0.00 in 0.03 in 0.10 in (1997)
Month to date precipitation 0.31 0.47  
Year to date precipitation 0.96 1.12  
Sea Level Pressure  
Sea Level Pressure 30.03 in    
Wind  
Wind Speed 6 mph (ESE)    
Max Wind Speed 14 mph    
Max Gust Speed 18 mph    
Visibility 10 miles    
Events      
T = Trace of Precipitation, MM = Missing Value Source: NWS Daily Summary

Daily Weather History Graph

Daily Weather History Graph

Search for Another Location

Airport:

Trip Planner

Search our weather history database for the weather conditions in past years. The results will help you decide how hot, cold, wet, or windy it might be!

Date:

Astronomy

Feb. 24, 2014 Rise Set
Actual Time 6:50 AM MST 5:59 PM MST
Civil Twilight 6:23 AM MST 6:26 PM MST
Nautical Twilight 5:53 AM MST 6:57 PM MST
Astronomical Twilight 5:22 AM MST 7:27 PM MST
Moon 2:49 AM MST (2/24) 1:05 PM MST (2/24)
Length of Visible Light 12h 02m
Length of Day
11h 08m
Waning Crescent, 27% of the Moon is Illuminated
Feb 24
Waning Crescent
Mar 1
New
Mar 8
First Quarter
Mar 16
Full
Mar 23
Last Quarter

Hourly Weather History & Observations

Time (MST) Temp. Windchill Dew Point Humidity Pressure Visibility Wind Dir Wind Speed Gust Speed Precip Events Conditions
12:53 AM 32.0 °F 24.2 °F 19.0 °F 59% 30.03 in 10.0 mi SSE 9.2 mph - N/A   Clear
1:53 AM 32.0 °F 24.2 °F 19.0 °F 59% 30.02 in 10.0 mi SE 9.2 mph - N/A   Clear
2:53 AM 30.9 °F - 18.0 °F 59% 30.01 in 10.0 mi Calm Calm - N/A   Clear
3:53 AM 28.0 °F 21.7 °F 18.0 °F 66% 30.03 in 10.0 mi SE 5.8 mph - N/A   Clear
4:53 AM 28.0 °F 22.8 °F 18.0 °F 66% 30.04 in 10.0 mi Variable 4.6 mph - N/A   Clear
5:53 AM 25.0 °F 18.1 °F 17.1 °F 72% 30.07 in 10.0 mi ESE 5.8 mph - N/A   Clear
6:53 AM 28.0 °F 21.7 °F 17.1 °F 63% 30.09 in 10.0 mi SSE 5.8 mph - N/A   Clear
7:53 AM 32.0 °F 25.6 °F 17.1 °F 54% 30.12 in 10.0 mi SSE 6.9 mph - N/A   Clear
8:53 AM 39.0 °F - 19.9 °F 46% 30.11 in 10.0 mi Calm Calm - N/A   Clear
9:53 AM 45.0 °F - 17.1 °F 33% 30.09 in 10.0 mi Calm Calm - N/A   Clear
10:53 AM 52.0 °F - 18.0 °F 26% 30.06 in 10.0 mi North 4.6 mph - N/A   Clear
11:53 AM 55.9 °F - 16.0 °F 21% 30.04 in 10.0 mi Variable 4.6 mph - N/A   Clear
12:53 PM 57.9 °F - 15.1 °F 19% 30.00 in 10.0 mi Variable 3.5 mph - N/A   Clear
1:53 PM 60.1 °F - 14.0 °F 16% 29.97 in 10.0 mi NW 11.5 mph - N/A   Clear
2:53 PM 60.1 °F - 12.9 °F 16% 29.96 in 10.0 mi NW 9.2 mph - N/A   Clear
3:53 PM 60.1 °F - 12.0 °F 15% 29.97 in 10.0 mi North 8.1 mph - N/A   Clear
4:53 PM 59.0 °F - 12.9 °F 16% 29.97 in 10.0 mi North 9.2 mph - N/A   Clear
5:53 PM 55.0 °F - 15.1 °F 21% 30.01 in 10.0 mi North 4.6 mph - N/A   Clear
6:53 PM 48.0 °F - 19.0 °F 32% 30.04 in 10.0 mi Calm Calm - N/A   Clear
7:53 PM 39.9 °F 34.5 °F 21.9 °F 49% 30.07 in 10.0 mi SSE 8.1 mph - N/A   Clear
8:53 PM 39.0 °F 32.8 °F 19.9 °F 46% 30.06 in 10.0 mi SSE 9.2 mph - N/A   Clear
9:53 PM 39.0 °F 31.4 °F 18.0 °F 43% 30.05 in 10.0 mi SE 12.7 mph - N/A   Clear
10:53 PM 39.0 °F 31.8 °F 17.1 °F 41% 30.01 in 10.0 mi SE 11.5 mph - N/A   Clear
11:53 PM 37.9 °F 30.9 °F 18.0 °F 45% 30.00 in 10.0 mi SE 10.4 mph - N/A   Clear